CAPE
1172 1117 1179 1269 1252 1181 1032 810 601 494 371 11 9 0 178 198 241 428 829 822 761 914 861 864 775 663 633 530 451 368 319 277 224 114 57 86 148 171 142 149 156 61 71 103 61 56 64 102 71 63 52 40 0 13 28 22 7 4 1 0 0 1 1 0 0 0 0 0 0 1 1 1 3 6 5 7 7 7 6 6 9 11 12 12 13
1161 1124 1202 1223 1168 1178 936 730 478 416 404 135 2 0 157 341 505 637 611 624 632 674 1034 908 788 713 653 659 574 466 351 332 218 32 2 3 35 191 160 353 272 229 210 110 43 68 77 69 93 87 65 46 44 25 20 0 0 2 0 0 0 0 0 0 0 0 0 1 1 0 0 0 0 0 1 4 4 5 7 5 7 6 7 9 10
1168 1177 1148 1135 1097 1024 910 724 581 472 290 423 5 1 0 227 273 218 251 347 494 605 1120 960 823 675 683 796 747 541 406 357 181 5 1 2 12 54 203 170 153 214 583 346 234 130 67 87 91 61 79 71 55 41 20 3 1 11 26 16 4 4 5 1 0 0 0 0 0 0 0 0 0 0 0 0 1 3 4 6 7 5 7 10 10
1148 1145 1073 1036 998 955 851 715 629 512 452 235 453 77 0 2 16 120 174 225 294 519 899 1011 805 588 556 615 669 670 522 296 18 0 0 0 0 0 28 166 230 201 388 428 306 130 137 117 73 78 77 140 127 121 63 52 78 106 103 84 56 76 92 77 38 12 1 0 0 0 0 0 0 0 0 0 0 0 2 3 5 6 6 9 8
1117 1067 986 896 886 865 819 770 649 552 509 193 405 325 90 174 148 218 282 313 373 543 787 965 830 506 466 490 548 510 423 236 2 0 0 0 0 0 26 237 408 713 227 49 107 91 166 235 209 215 206 162 185 126 125 148 172 185 189 197 175 195 178 124 78 96 76 9 0 0 0 0 0 0 0 0 0 0 0 2 5 6 6 7 6
1111 1026 930 836 826 804 747 720 665 591 537 455 248 401 347 273 302 357 438 526 566 691 840 967 747 436 447 450 420 371 300 93 0 0 0 0 0 128 225 187 7 234 460 597 967 738 612 327 358 295 218 190 184 197 233 289 286 226 222 215 194 166 252 278 333 320 267 136 72 29 5 1 0 0 2 3 2 0 0 0 3 4 5 5 6
1136 1044 972 874 836 844 794 756 649 609 559 526 198 396 416 385 392 398 458 634 768 876 944 901 554 425 377 210 327 0 332 341 274 0 0 0 0 202 201 235 390 523 520 662 962 964 778 611 387 277 230 186 175 222 306 364 339 309 256 232 223 206 386 421 293 307 350 377 228 177 122 31 4 1 2 5 6 5 5 2 2 4 4 5 4
1112 1074 996 967 916 862 807 764 702 613 461 524 434 444 461 421 412 375 350 424 689 795 782 555 427 359 0 128 386 389 401 436 335 24 0 0 176 225 208 326 385 421 481 318 452 750 732 661 670 464 287 228 248 341 249 225 226 211 152 120 223 425 431 456 409 469 400 376 375 316 264 136 28 9 2 1 5 5 7 7 7 5 5 5 5
1003 986 822 789 768 731 651 604 589 603 580 539 512 539 398 376 392 392 388 374 344 442 469 400 347 326 111 0 113 360 410 423 303 188 170 185 216 245 256 327 476 503 283 319 384 428 753 632 506 519 410 356 276 309 298 198 300 238 294 221 452 429 501 489 519 491 421 371 396 292 272 219 126 53 12 4 5 6 6 7 6 5 4 5 4
853 830 775 722 696 616 700 744 767 698 558 572 606 498 487 464 392 425 408 347 376 383 423 393 149 193 10 20 78 105 314 291 224 238 125 213 239 239 299 376 412 294 281 354 366 346 371 450 478 466 484 330 416 236 305 186 414 371 365 444 371 567 556 618 539 468 448 321 314 158 153 214 210 183 33 6 13 19 14 8 6 6 4 4 4
771 696 750 744 642 546 882 841 895 735 605 584 582 555 550 499 450 433 380 367 360 336 353 327 264 0 4 32 70 1 1 124 236 204 135 222 246 240 308 364 346 255 316 369 324 260 216 286 326 328 372 430 440 320 394 320 391 389 366 426 264 547 456 680 419 250 328 139 5 0 0 6 113 173 57 25 27 22 16 7 5 6 2 1 0
804 579 655 731 745 653 942 882 925 878 725 728 722 748 645 574 532 484 351 287 136 280 267 283 72 1 1 27 91 148 244 245 201 173 143 195 226 180 271 244 317 247 306 290 148 94 124 167 236 325 361 423 448 264 429 339 216 394 417 460 326 450 377 385 293 114 73 3 0 0 0 4 3 162 205 51 38 23 21 12 11 6 1 0 1
582 409 579 701 886 791 955 927 879 814 839 768 800 827 734 606 524 475 381 211 252 291 314 302 132 28 46 102 204 240 260 164 178 127 146 178 37 188 185 129 196 182 212 132 119 118 134 142 203 270 290 351 394 500 324 346 270 388 314 367 393 591 393 220 199 46 0 0 0 7 54 160 146 167 183 29 47 48 24 10 0 0 0 0 1
346 121 392 618 858 899 967 948 861 765 627 777 853 889 647 472 474 415 379 284 166 286 74 58 24 24 125 51 137 131 113 127 61 26 11 114 178 195 1 116 127 127 114 118 162 96 101 133 178 194 262 332 321 305 320 252 373 388 283 378 333 86 8 37 13 1 0 0 4 124 227 314 248 129 224 46 50 19 0 0 0 0 0 16 18
461 222 86 414 649 886 815 822 888 800 698 691 818 853 629 451 442 400 298 266 221 164 143 16 4 38 20 31 74 94 44 117 202 141 90 134 130 58 28 54 175 162 135 153 161 64 47 79 136 182 218 292 278 295 238 219 262 443 481 153 34 17 12 6 2 0 0 2 106 335 347 405 403 295 228 182 49 1 8 5 16 28 18 6 4
565 414 328 88 498 776 881 810 1064 986 923 840 820 762 598 491 467 406 294 267 189 184 146 4 8 0 1 16 44 71 39 82 55 50 74 56 22 4 14 33 96 47 56 88 133 66 52 66 113 152 228 240 264 248 209 167 151 62 25 18 21 5 2 4 3 1 0 14 286 354 439 356 339 174 58 111 45 33 31 29 13 3 2 0 0
675 523 409 422 547 659 702 829 930 1031 1052 868 885 763 614 578 507 406 381 300 175 163 103 122 23 6 0 0 4 29 44 112 45 3 29 21 21 35 16 22 26 132 140 110 97 64 14 71 113 121 148 182 192 192 159 117 0 54 26 50 24 4 0 1 1 1 1 85 390 401 308 274 220 145 86 59 60 45 21 5 1 0 0 0 0
657 559 429 492 571 646 535 530 603 799 949 1018 994 710 621 636 557 499 449 331 188 162 192 191 143 0 0 0 0 0 3 51 14 3 15 53 69 75 61 55 91 134 4 0 0 0 0 66 91 109 102 137 144 115 56 0 0 0 0 0 1 4 2 1 1 3 3 60 379 350 284 169 138 158 102 78 54 15 2 0 0 0 0 0 0
734 595 515 505 575 563 417 324 470 591 810 1021 929 726 588 600 526 496 465 329 101 144 150 166 211 11 0 0 0 0 0 1 5 3 5 6 62 17 28 96 122 88 14 41 0 0 0 0 34 92 1 0 0 0 0 0 0 0 0 0 0 0 0 2 6 6 2 22 303 300 271 261 171 99 71 15 2 0 0 0 0 0 0 0 0
783 582 476 526 538 501 439 398 559 661 660 812 829 778 672 568 584 508 466 360 4 41 93 124 15 146 0 0 0 0 0 0 0 0 0 0 6 16 40 30 53 15 0 0 0 0 0 0 0 0 0 0 0 0 0 0 0 0 0 0 0 0 0 0 0 1 1 0 47 111 161 94 41 6 0 0 0 0 0 0 0 0 0 0 0
728 606 605 739 898 1053 818 487 504 768 711 804 771 766 700 659 639 610 470 353 0 199 29 52 1 0 0 0 0 0 0 0 0 0 0 0 3 6 7 6 30 39 72 54 0 0 0 0 0 0 0 0 0 0 0 0 0 0 0 0 0 0 0 0 0 0 0 0 3 11 27 16 6 0 0 0 0 0 0 0 0 0 0 0 0
558 590 671 807 946 1077 977 593 520 632 880 949 911 829 748 669 615 590 507 441 447 398 7 4 0 0 0 0 0 0 0 0 0 0 0 0 0 2 9 6 9 2 82 105 53 0 0 0 19 0 0 0 0 0 0 0 0 0 0 0 0 0 0 0 0 0 0 0 2 8 18 18 11 0 1 0 0 0 0 0 0 0 0 0 0
568 675 721 778 896 1054 1033 839 717 725 708 749 849 838 860 827 743 622 464 478 539 456 376 0 252 199 0 0 0 0 0 0 0 0 0 0 0 5 27 11 6 2 57 120 0 0 61 0 92 1 0 0 0 0 0 0 0 0 0 0 0 0 0 0 0 0 0 0 0 0 0 4 0 0 0 0 0 0 0 0 0 0 0 0 0
517 702 700 708 778 968 1094 1012 916 784 642 556 698 802 772 788 813 706 590 609 586 504 408 406 354 353 127 0 0 0 0 0 0 0 0 0 0 0 8 3 0 0 0 111 14 0 80 33 111 62 0 0 0 0 0 0 0 0 0 0 0 0 0 0 0 0 0 0 0 1 1 0 0 0 0 0 0 0 0 1 0 0 0 0 0
452 625 671 625 687 772 863 890 856 748 568 508 647 719 678 775 737 686 691 674 600 504 476 452 429 385 319 267 0 0 0 0 0 0 0 0 0 0 5 1 0 1 0 69 0 0 4 85 102 0 0 0 0 0 0 0 0 0 0 0 0 0 0 0 0 0 0 0 0 2 4 1 1 1 2 1 1 2 3 0 0 0 0 0 0
420 575 672 664 710 842 855 794 706 677 536 608 682 655 826 876 734 582 598 670 646 566 502 484 466 483 384 0 0 18 0 0 0 0 0 0 0 0 0 1 0 0 0 0 0 0 0 18 0 0 0 0 0 0 0 0 0 0 0 0 0 0 0 0 0 0 0 0 0 0 1 1 1 1 1 0 0 0 0 0 0 0 0 0 0
535 482 549 647 790 834 835 760 688 654 457 719 885 839 874 831 691 558 499 642 721 635 518 436 445 473 473 442 405 74 0 0 0 0 0 0 0 0 0 0 0 0 0 0 0 0 0 0 0 0 0 0 0 0 0 0 0 0 0 0 0 0 0 0 0 0 0 0 0 0 0 0 0 0 0 0 0 0 0 0 0 0 0 0 0
485 613 559 589 830 825 650 517 501 551 472 705 950 901 823 800 686 581 487 635 715 609 521 426 412 403 428 409 134 167 0 0 0 0 0 0 0 0 0 0 0 0 0 0 0 0 0 0 0 0 0 0 0 0 0 0 0 0 0 0 0 0 0 0 0 0 0 0 0 0 0 0 0 0 0 0 0 0 0 0 0 0 0 0 0
497 488 518 684 826 733 534 335 455 606 682 784 890 867 759 759 724 612 482 573 686 646 570 512 421 350 385 57 390 411 377 213 52 0 166 0 0 0 0 0 0 0 0 0 0 0 0 0 0 0 0 0 0 0 0 0 0 0 0 0 0 0 0 0 0 0 0 0 0 0 0 0 0 0 0 0 0 0 0 0 0 0 0 0 0
530 385 449 467 671 604 489 457 602 607 765 978 1003 955 860 802 754 655 567 635 715 657 622 557 447 478 478 376 367 354 324 366 426 434 319 0 0 0 0 0 0 0 0 0 0 0 0 0 0 0 0 0 0 0 0 0 0 0 0 0 0 0 0 0 0 0 0 0 0 0 0 0 0 0 0 0 0 0 0 0 0 0 0 0 0
567 532 394 470 590 526 488 565 594 837 874 959 897 834 731 766 736 715 616 656 647 666 658 584 503 457 444 388 379 361 386 432 463 363 360 341 90 0 0 0 0 0 0 38 0 0 0 0 0 0 0 0 0 0 0 0 0 0 0 0 0 0 0 0 0 0 0 0 0 0 0 0 0 0 0 0 0 0 0 0 0 0 0 0 0
575 442 361 496 550 499 573 610 588 696 554 672 653 616 630 723 770 734 729 756 767 762 707 634 585 454 388 347 345 382 466 540 504 360 389 425 411 384 128 0 0 0 0 0 0 0 0 0 0 0 0 0 0 0 0 0 0 0 0 0 0 0 0 0 0 0 0 0 0 0 0 0 0 0 0 0 0 0 0 0 0 0 0 0 0
602 426 368 462 524 511 601 608 512 497 446 757 684 668 824 869 830 815 861 828 750 739 707 678 606 488 440 446 471 488 559 604 609 506 430 456 436 384 0 0 0 0 0 0 0 0 0 0 0 0 0 0 0 0 0 0 0 0 0 0 0 0 0 0 0 0 0 0 0 0 0 0 0 0 0 0 0 0 0 0 0 0 0 0 0
547 407 409 480 494 518 608 520 466 560 740 782 804 887 920 921 890 846 857 724 724 738 643 628 545 583 649 685 672 629 629 593 587 529 418 482 458 382 290 0 0 0 154 0 0 0 0 0 0 0 0 0 0 0 0 0 0 0 0 0 0 0 0 0 0 0 0 0 0 0 0 0 0 0 0 0 0 0 0 0 0 0 0 0 0
447 384 442 536 586 650 647 634 653 819 854 843 812 785 889 836 838 817 789 800 795 754 641 617 610 641 740 786 818 732 600 575 529 462 374 476 510 452 355 312 273 255 207 0 0 0 0 0 0 0 0 0 0 0 0 0 0 0 0 0 0 0 0 0 0 0 0 0 0 0 0 0 0 0 0 0 0 0 0 0 0 0 0 0 0
414 354 436 610 533 636 646 574 741 826 869 853 820 817 827 757 740 733 745 768 717 633 609 593 607 631 703 796 836 783 630 549 531 517 443 375 462 525 430 18 61 275 186 49 0 1 0 0 0 0 0 0 0 0 0 0 0 0 0 0 0 0 0 0 0 0 0 0 0 0 0 0 0 0 0 0 0 0 0 0 0 0 0 0 0
369 429 565 675 583 581 297 208 760 865 842 753 731 791 747 728 750 732 668 642 688 706 711 693 683 740 774 832 870 799 679 532 537 567 522 468 397 371 325 407 251 191 0 0 0 0 0 0 0 0 0 0 0 0 0 0 0 0 0 0 0 0 0 0 0 0 0 0 0 0 0 0 0 0 0 0 0 0 0 0 0 0 0 0 0
356 424 637 540 555 164 147 402 593 568 465 485 579 660 694 633 675 716 716 707 724 751 778 762 715 716 740 749 712 721 683 689 661 548 450 448 414 355 178 0 246 0 0 0 0 29 31 128 62 0 0 0 0 0 0 0 0 0 0 0 0 0 0 0 0 0 0 0 0 0 0 0 0 0 0 0 0 0 0 0 0 0 0 0 0
381 551 530 477 159 98 204 376 288 248 308 357 400 416 394 415 433 404 415 483 534 612 690 715 671 616 660 615 558 650 757 792 754 621 576 584 492 414 421 462 378 261 197 259 264 242 204 142 0 0 0 0 0 0 0 0 0 0 0 0 0 0 0 0 0 0 0 0 0 0 0 0 0 0 0 0 0 0 0 0 0 0 0 0 0
524 366 360 143 82 139 307 300 225 222 238 248 209 192 228 231 203 114 132 330 429 434 354 376 394 440 501 474 477 550 633 700 658 644 680 643 528 497 479 526 425 388 412 296 256 244 66 0 0 0 0 0 0 0 0 0 0 0 0 0 0 0 0 0 0 0 0 0 0 0 0 0 0 0 0 0 0 0 0 0 0 0 0 0 0
377 265 164 69 98 206 260 232 174 152 146 132 112 91 16 0 0 0 0 36 220 118 0 0 0 51 313 367 440 415 388 425 487 597 645 518 532 496 501 501 373 259 258 285 277 16 0 0 0 0 0 0 0 0 0 0 0 0 0 0 0 0 0 0 0 0 0 0 0 0 0 0 0 0 0 0 0 0 0 0 0 0 0 0 0
264 152 91 119 191 334 236 174 153 122 87 108 125 0 0 0 0 0 0 0 0 0 0 0 0 0 12 370 357 330 367 383 508 606 548 326 447 542 315 366 327 102 81 155 90 0 0 0 0 0 0 0 0 0 0 0 0 0 0 0 0 0 0 0 0 0 0 0 0 0 0 0 0 0 0 0 0 0 0 0 0 0 0 0 0
101 67 91 165 285 286 215 125 98 66 100 134 68 0 0 0 0 0 0 0 0 0 0 0 0 218 300 281 319 346 343 347 400 416 448 388 364 343 347 338 0 10 51 10 2 0 0 0 0 0 0 0 0 0 0 0 0 0 0 0 0 0 0 0 0 0 0 0 0 0 0 0 0 0 0 0 0 0 0 0 0 0 0 0 0
50 36 148 56 236 195 89 85 80 0 43 34 0 0 0 0 0 0 0 0 0 0 5 229 0 129 152 299 324 359 354 369 357 358 384 297 241 230 126 64 0 0 0 0 0 0 0 0 0 0 0 0 0 0 0 0 0 0 0 0 0 0 0 0 0 0 0 0 0 0 0 0 0 0 0 0 0 0 0 0 0 0 0 0 0
27 96 161 158 239 93 82 77 62 0 0 0 0 0 0 0 0 0 0 0 0 0 27 145 126 262 248 260 304 332 340 315 280 220 173 156 223 244 1 0 0 0 0 0 4 0 0 0 0 0 0 0 0 0 0 0 0 0 0 0 0 0 0 0 0 0 0 0 0 0 0 0 0 0 0 0 0 0 0 0 0 0 0 0 0
48 20 179 207 132 92 71 57 60 14 0 0 0 0 0 0 0 0 0 0 0 0 0 0 0 176 94 241 304 332 320 276 219 153 0 0 176 230 0 0 0 0 0 0 1 0 0 0 0 0 0 0 0 0 0 0 0 0 0 0 0 0 0 0 0 0 0 0 0 0 0 0 0 0 0 0 0 0 0 0 0 0 0 0 0
31 75 132 119 90 74 69 59 57 0 0 0 0 0 0 0 0 0 0 0 0 0 0 59 20 2 228 276 320 357 339 244 179 115 15 14 0 0 0 0 0 0 0 0 0 0 0 0 0 0 0 0 0 0 0 0 0 0 0 0 0 0 0 0 0 0 0 0 0 0 0 0 0 0 0 0 0 0 110 138 154 160 163 156 142
46 125 101 75 72 92 85 90 56 0 0 0 0 0 0 0 0 0 0 0 0 0 0 0 0 0 0 95 51 57 77 256 165 125 75 35 0 0 0 0 0 1 0 0 0 0 0 0 0 0 0 0 0 16 19 22 23 20 17 15 2 0 0 0 0 0 0 0 0 0 0 0 0 0 0 0 0 0 0 0 0 0 0 0 25
78 86 66 50 59 75 94 107 104 92 0 0 0 0 0 0 0 0 0 0 0 0 0 0 0 13 0 0 0 0 0 0 117 154 150 0 0 0 0 27 25 0 0 0 0 0 0 0 0 10 8 11 12 12 17 18 17 12 16 18 12 0 0 0 0 0 0 0 0 0 0 0 0 0 0 0 0 0 0 0 0 0 0 0 0
66 50 45 36 46 63 84 85 82 0 0 0 0 0 0 0 0 0 0 0 0 0 0 0 1 5 4 0 0 0 0 0 0 0 19 0 0 0 0 0 0 38 61 29 0 0 0 0 0 0 0 0 0 0 0 0 0 0 0 0 0 0 0 0 0 0 0 0 0 0 0 0 0 0 0 0 0 0 0 0 0 0 0 0 0
43 32 24 25 9 0 0 0 0 0 0 0 0 0 0 0 0 0 0 1 0 2 5 4 7 29 19 12 0 0 0 0 0 0 0 0 0 0 0 0 0 0 0 0 0 0 0 0 0 0 0 0 0 0 0 0 0 0 0 0 0 0 0 0 0 0 1 0 0 0 0 0 0 0 1 1 0 0 0 0 0 0 0 0 0
Wind_Speed
16 15 16 17 18 18 18 15 14 15 17 nan nan nan 12 11 10 10 10 7 6 9 9 10 12 12 14 13 12 11 11 11 11 12 nan nan 12 14 16 17 16 nan nan 16 nan nan nan 22 nan nan nan nan nan nan nan nan nan nan nan nan nan nan nan nan nan nan nan nan nan nan nan nan nan nan nan nan nan nan nan nan nan nan nan nan nan
16 15 15 15 16 17 16 15 15 16 16 16 nan nan 13 12 11 12 10 7 5 8 9 10 11 11 12 14 12 10 10 9 10 nan nan nan nan 13 17 17 15 14 15 16 nan nan nan nan nan nan nan nan nan nan nan nan nan nan nan nan nan nan nan nan nan nan nan nan nan nan nan nan nan nan nan nan nan nan nan nan nan nan nan nan nan
16 15 14 15 15 16 14 14 15 14 15 14 nan nan nan 13 13 13 10 8 5 8 9 9 10 11 11 12 12 11 10 9 9 nan nan nan nan nan 15 18 16 14 13 15 17 18 nan nan nan nan nan nan nan nan nan nan nan nan nan nan nan nan nan nan nan nan nan nan nan nan nan nan nan nan nan nan nan nan nan nan nan nan nan nan nan
16 15 14 15 15 14 14 13 12 14 14 14 13 nan nan nan nan 14 12 8 8 10 8 10 10 11 9 10 11 12 11 10 nan nan nan nan nan nan nan 13 15 15 15 15 16 19 19 18 nan nan nan 17 17 17 nan nan nan 15 14 nan nan nan nan nan nan nan nan nan nan nan nan nan nan nan nan nan nan nan nan nan nan nan nan nan nan
15 14 14 15 16 16 15 14 15 14 14 14 14 16 nan 16 17 15 14 11 11 12 10 10 11 10 9 10 11 11 10 10 nan nan nan nan nan nan nan 10 11 14 16 nan 16 nan 17 16 16 15 15 15 16 15 15 15 14 14 13 11 11 12 12 13 nan nan nan nan nan nan nan nan nan nan nan nan nan nan nan nan nan nan nan nan nan
16 14 14 15 16 15 15 15 15 15 14 15 16 17 16 17 17 16 13 11 12 11 12 11 11 11 9 9 10 10 10 nan nan nan nan nan nan 9 9 10 nan 11 11 15 14 13 13 14 14 13 12 13 13 13 13 13 12 12 11 10 10 11 12 11 11 11 12 14 nan nan nan nan nan nan nan nan nan nan nan nan nan nan nan nan nan
16 15 13 14 14 14 14 13 15 14 14 14 18 16 17 17 16 16 14 13 13 11 12 11 10 10 10 9 10 nan 10 10 9 nan nan nan nan 8 8 9 10 11 12 11 13 15 14 11 11 10 9 10 10 9 10 10 9 9 9 9 9 10 11 11 11 10 11 11 13 14 14 nan nan nan nan nan nan nan nan nan nan nan nan nan nan
17 16 14 13 13 12 12 12 14 14 14 16 18 16 17 18 15 15 15 13 14 14 13 12 10 10 nan 11 11 10 10 8 8 nan nan nan 8 8 7 8 8 9 11 11 10 11 13 11 10 7 7 7 7 5 6 7 7 7 7 8 9 9 8 10 11 12 12 11 11 11 11 12 nan nan nan nan nan nan nan nan nan nan nan nan nan
17 16 16 14 13 12 13 15 16 14 15 17 17 15 17 17 14 11 14 14 15 15 14 12 12 12 13 nan 10 10 9 7 7 7 7 8 8 7 7 6 6 9 7 9 9 8 10 9 7 7 7 5 4 3 3 3 4 5 3 5 6 9 11 13 15 16 15 13 11 10 8 9 10 nan nan nan nan nan nan nan nan nan nan nan nan
16 16 17 16 14 14 16 18 17 16 17 17 16 14 16 16 15 13 13 16 15 14 13 13 13 14 nan nan nan 10 8 7 7 7 7 8 8 7 6 5 6 6 6 7 7 8 8 8 9 9 8 8 8 8 7 5 4 3 4 6 8 11 14 16 17 16 15 13 12 9 8 7 6 10 nan nan nan nan nan nan nan nan nan nan nan
16 16 18 17 16 16 17 17 19 20 18 17 16 15 15 13 15 15 16 15 15 14 14 14 15 nan nan nan nan nan nan 8 8 8 6 6 6 6 5 5 6 6 5 6 6 6 6 5 5 6 6 6 7 5 4 2 2 3 4 7 10 13 14 15 14 12 11 9 nan nan nan nan 8 10 nan nan nan nan nan nan nan nan nan nan nan
15 16 18 17 15 15 16 18 19 19 16 16 16 15 15 15 15 17 18 17 16 15 15 17 nan nan nan nan nan 11 10 9 8 7 6 5 5 6 5 6 7 6 6 6 6 nan 5 6 6 6 7 9 8 6 5 8 4 4 7 7 10 12 12 12 11 9 nan nan nan nan nan nan nan 11 14 nan nan nan nan nan nan nan nan nan nan
14 16 17 16 14 14 15 17 18 17 15 15 16 16 15 16 16 16 17 17 15 15 15 16 18 nan nan 14 13 12 11 10 9 7 7 4 nan 8 7 8 8 8 7 7 7 6 6 6 6 6 7 8 10 9 11 8 9 8 7 8 9 11 11 11 10 nan nan nan nan nan nan 8 7 9 15 nan nan nan nan nan nan nan nan nan nan
13 14 15 14 14 13 13 16 17 17 15 15 17 16 18 19 18 18 14 15 14 14 nan nan nan nan 13 nan 12 11 11 10 nan nan nan 5 5 5 nan 9 10 8 7 8 7 nan 5 6 6 7 6 7 8 8 9 6 3 5 7 8 10 nan nan nan nan nan nan nan nan 8 8 10 10 13 17 nan nan nan nan nan nan nan nan nan nan
12 12 nan 13 12 13 13 16 18 19 19 17 16 16 17 19 17 16 15 15 16 13 12 nan nan nan nan nan nan nan nan 9 9 7 nan 6 5 nan nan nan 8 7 6 8 8 nan nan nan 6 6 6 6 7 7 6 4 4 4 7 9 nan nan nan nan nan nan nan nan 11 12 12 13 13 18 19 18 nan nan nan nan nan nan nan nan nan
12 12 13 nan 13 13 15 17 18 19 19 18 16 17 18 18 17 16 16 17 14 12 12 nan nan nan nan nan nan nan nan nan nan nan nan nan nan nan nan nan nan nan nan nan 7 nan nan nan 6 7 7 6 7 7 8 7 10 nan nan nan nan nan nan nan nan nan nan nan 14 16 16 19 20 19 nan 19 nan nan nan nan nan nan nan nan nan
14 13 13 14 14 15 16 17 18 18 18 18 17 17 17 17 17 17 15 16 14 14 12 14 nan nan nan nan nan nan nan 10 nan nan nan nan nan nan nan nan nan 6 7 7 nan nan nan nan 7 8 8 8 8 8 9 9 nan nan nan nan nan nan nan nan nan nan nan nan 17 20 21 21 22 20 nan nan nan nan nan nan nan nan nan nan nan
15 14 13 15 16 16 17 18 18 17 17 17 17 20 19 17 15 17 16 14 16 15 14 14 12 nan nan nan nan nan nan nan nan nan nan nan nan nan nan nan nan 8 nan nan nan nan nan nan nan 9 9 9 9 10 nan nan nan nan nan nan nan nan nan nan nan nan nan nan 18 20 21 21 20 19 19 nan nan nan nan nan nan nan nan nan nan
15 15 15 16 16 16 18 19 19 17 16 18 18 18 17 16 17 17 16 17 17 17 13 14 14 nan nan nan nan nan nan nan nan nan nan nan nan nan nan nan 10 nan nan nan nan nan nan nan nan nan nan nan nan nan nan nan nan nan nan nan nan nan nan nan nan nan nan nan 18 19 21 20 20 nan nan nan nan nan nan nan nan nan nan nan nan
17 16 16 17 16 16 17 19 19 17 17 17 17 17 17 17 17 19 20 18 nan nan nan 14 nan 11 nan nan nan nan nan nan nan nan nan nan nan nan nan nan nan nan nan nan nan nan nan nan nan nan nan nan nan nan nan nan nan nan nan nan nan nan nan nan nan nan nan nan nan 18 19 nan nan nan nan nan nan nan nan nan nan nan nan nan nan
19 18 18 18 17 16 17 18 18 17 18 19 19 17 16 18 20 21 19 17 nan 16 nan nan nan nan nan nan nan nan nan nan nan nan nan nan nan nan nan nan nan nan nan nan nan nan nan nan nan nan nan nan nan nan nan nan nan nan nan nan nan nan nan nan nan nan nan nan nan nan nan nan nan nan nan nan nan nan nan nan nan nan nan nan nan
20 20 20 20 19 18 17 16 16 18 20 21 20 19 18 19 19 19 19 17 16 17 nan nan nan nan nan nan nan nan nan nan nan nan nan nan nan nan nan nan nan nan nan 12 nan nan nan nan nan nan nan nan nan nan nan nan nan nan nan nan nan nan nan nan nan nan nan nan nan nan nan nan nan nan nan nan nan nan nan nan nan nan nan nan nan
23 22 21 21 20 19 17 15 17 19 21 22 20 19 19 19 19 20 19 17 16 17 16 nan 17 16 nan nan nan nan nan nan nan nan nan nan nan nan nan nan nan nan nan 12 nan nan nan nan nan nan nan nan nan nan nan nan nan nan nan nan nan nan nan nan nan nan nan nan nan nan nan nan nan nan nan nan nan nan nan nan nan nan nan nan nan
24 24 23 23 22 20 18 16 17 19 20 21 21 21 21 21 21 20 19 17 17 18 18 18 18 16 16 nan nan nan nan nan nan nan nan nan nan nan nan nan nan nan nan 15 nan nan nan nan 13 nan nan nan nan nan nan nan nan nan nan nan nan nan nan nan nan nan nan nan nan nan nan nan nan nan nan nan nan nan nan nan nan nan nan nan nan
24 25 24 23 23 21 19 17 18 19 20 21 21 22 22 22 23 21 20 18 17 18 18 16 17 16 15 15 nan nan nan nan nan nan nan nan nan nan nan nan nan nan nan nan nan nan nan nan 16 nan nan nan nan nan nan nan nan nan nan nan nan nan nan nan nan nan nan nan nan nan nan nan nan nan nan nan nan nan nan nan nan nan nan nan nan
21 22 24 24 23 20 19 18 18 19 20 22 23 23 23 23 23 22 20 19 19 18 17 17 16 15 18 nan nan nan nan nan nan nan nan nan nan nan nan nan nan nan nan nan nan nan nan nan nan nan nan nan nan nan nan nan nan nan nan nan nan nan nan nan nan nan nan nan nan nan nan nan nan nan nan nan nan nan nan nan nan nan nan nan nan
21 21 24 23 22 20 20 20 20 20 21 23 24 24 23 24 23 22 22 21 19 19 18 17 16 17 17 17 16 nan nan nan nan nan nan nan nan nan nan nan nan nan nan nan nan nan nan nan nan nan nan nan nan nan nan nan nan nan nan nan nan nan nan nan nan nan nan nan nan nan nan nan nan nan nan nan nan nan nan nan nan nan nan nan nan
22 24 22 21 22 20 20 18 20 22 23 23 24 24 24 24 25 25 22 22 20 18 18 18 17 17 18 18 19 17 nan nan nan nan nan nan nan nan nan nan nan nan nan nan nan nan nan nan nan nan nan nan nan nan nan nan nan nan nan nan nan nan nan nan nan nan nan nan nan nan nan nan nan nan nan nan nan nan nan nan nan nan nan nan nan
19 20 17 19 22 23 20 21 25 25 25 25 25 24 24 25 26 24 22 22 21 18 19 18 18 19 19 nan 18 19 19 18 nan nan 16 nan nan nan nan nan nan nan nan nan nan nan nan nan nan nan nan nan nan nan nan nan nan nan nan nan nan nan nan nan nan nan nan nan nan nan nan nan nan nan nan nan nan nan nan nan nan nan nan nan nan
19 19 18 18 23 22 23 26 27 27 25 27 26 24 24 25 26 24 22 22 21 20 19 19 19 20 20 20 20 21 21 20 17 17 17 nan nan nan nan nan nan nan nan nan nan nan nan nan nan nan nan nan nan nan nan nan nan nan nan nan nan nan nan nan nan nan nan nan nan nan nan nan nan nan nan nan nan nan nan nan nan nan nan nan nan
20 18 16 18 21 22 23 26 26 22 23 26 26 24 24 27 27 26 24 23 21 20 20 20 21 21 21 19 20 22 22 22 21 19 18 18 nan nan nan nan nan nan nan nan nan nan nan nan nan nan nan nan nan nan nan nan nan nan nan nan nan nan nan nan nan nan nan nan nan nan nan nan nan nan nan nan nan nan nan nan nan nan nan nan nan
19 17 16 18 21 23 23 24 26 22 21 27 26 25 26 27 28 27 24 23 21 20 20 20 22 22 21 20 20 21 22 24 23 21 19 19 19 18 17 nan nan nan nan nan nan nan nan nan nan nan nan nan nan nan nan nan nan nan nan nan nan nan nan nan nan nan nan nan nan nan nan nan nan nan nan nan nan nan nan nan nan nan nan nan nan
21 21 19 18 21 23 22 23 23 19 22 29 28 27 26 27 27 25 24 23 20 20 21 21 22 23 22 21 20 20 23 23 23 23 22 20 21 20 nan nan nan nan nan nan nan nan nan nan nan nan nan nan nan nan nan nan nan nan nan nan nan nan nan nan nan nan nan nan nan nan nan nan nan nan nan nan nan nan nan nan nan nan nan nan nan
21 24 24 23 25 22 22 23 23 21 24 29 30 28 26 27 26 25 24 23 21 21 22 21 23 23 23 22 20 21 21 22 23 23 22 22 21 21 19 nan nan nan 24 nan nan nan nan nan nan nan nan nan nan nan nan nan nan nan nan nan nan nan nan nan nan nan nan nan nan nan nan nan nan nan nan nan nan nan nan nan nan nan nan nan nan
22 25 26 25 22 26 24 23 24 25 26 28 30 29 26 26 26 25 25 23 22 22 22 21 23 24 24 22 21 21 22 22 22 22 23 23 22 19 17 17 19 23 23 nan nan nan nan nan nan nan nan nan nan nan nan nan nan nan nan nan nan nan nan nan nan nan nan nan nan nan nan nan nan nan nan nan nan nan nan nan nan nan nan nan nan
26 26 28 25 23 26 27 22 24 26 26 28 30 28 27 26 26 25 25 24 23 23 22 22 24 24 23 22 21 22 22 21 21 22 21 22 21 20 18 nan nan 24 22 nan nan nan nan nan nan nan nan nan nan nan nan nan nan nan nan nan nan nan nan nan nan nan nan nan nan nan nan nan nan nan nan nan nan nan nan nan nan nan nan nan nan
28 30 30 27 26 28 25 21 26 26 26 28 30 29 28 27 27 27 26 25 23 23 23 23 24 24 23 21 21 23 23 22 22 22 21 21 18 21 27 21 21 22 nan nan nan nan nan nan nan nan nan nan nan nan nan nan nan nan nan nan nan nan nan nan nan nan nan nan nan nan nan nan nan nan nan nan nan nan nan nan nan nan nan nan nan
30 29 28 26 25 27 24 25 27 27 28 30 31 30 28 29 29 28 27 25 24 25 24 24 24 23 22 21 22 23 23 21 21 22 22 20 21 25 23 nan 21 nan nan nan nan nan nan 20 nan nan nan nan nan nan nan nan nan nan nan nan nan nan nan nan nan nan nan nan nan nan nan nan nan nan nan nan nan nan nan nan nan nan nan nan nan
32 30 27 26 29 nan 27 28 29 30 31 33 34 33 31 31 30 28 26 25 26 26 24 23 23 22 22 23 23 23 22 21 22 22 22 22 22 22 22 23 22 23 23 24 24 24 23 24 nan nan nan nan nan nan nan nan nan nan nan nan nan nan nan nan nan nan nan nan nan nan nan nan nan nan nan nan nan nan nan nan nan nan nan nan nan
33 28 27 32 nan 29 28 29 30 30 32 34 36 36 34 32 31 28 26 26 27 26 24 23 23 22 22 22 22 21 21 22 22 23 23 23 22 22 21 23 25 24 21 23 27 27 nan nan nan nan nan nan nan nan nan nan nan nan nan nan nan nan nan nan nan nan nan nan nan nan nan nan nan nan nan nan nan nan nan nan nan nan nan nan nan
32 30 30 nan nan 35 30 30 30 30 32 33 36 nan nan nan nan nan nan nan 27 26 nan nan nan nan 23 23 23 24 23 24 25 25 27 26 23 20 25 28 26 25 24 25 27 nan nan nan nan nan nan nan nan nan nan nan nan nan nan nan nan nan nan nan nan nan nan nan nan nan nan nan nan nan nan nan nan nan nan nan nan nan nan nan nan
36 34 nan 32 36 35 33 32 31 32 nan 32 35 nan nan nan nan nan nan nan nan nan nan nan nan nan nan 27 27 31 31 31 29 29 28 24 19 24 29 26 27 26 nan 26 nan nan nan nan nan nan nan nan nan nan nan nan nan nan nan nan nan nan nan nan nan nan nan nan nan nan nan nan nan nan nan nan nan nan nan nan nan nan nan nan nan
35 nan nan 32 37 33 35 34 nan nan 33 32 nan nan nan nan nan nan nan nan nan nan nan nan nan 27 28 29 29 30 31 31 30 34 32 30 27 27 31 31 nan nan nan nan nan nan nan nan nan nan nan nan nan nan nan nan nan nan nan nan nan nan nan nan nan nan nan nan nan nan nan nan nan nan nan nan nan nan nan nan nan nan nan nan nan
nan nan 30 nan 36 34 nan nan nan nan nan nan nan nan nan nan nan nan nan nan nan nan nan 28 nan 28 29 30 30 30 30 30 30 33 35 35 34 37 40 nan nan nan nan nan nan nan nan nan nan nan nan nan nan nan nan nan nan nan nan nan nan nan nan nan nan nan nan nan nan nan nan nan nan nan nan nan nan nan nan nan nan nan nan nan nan
nan nan 32 36 35 nan nan nan nan nan nan nan nan nan nan nan nan nan nan nan nan nan nan 30 30 30 30 31 31 31 29 33 33 33 35 36 38 41 nan nan nan nan nan nan nan nan nan nan nan nan nan nan nan nan nan nan nan nan nan nan nan nan nan nan nan nan nan nan nan nan nan nan nan nan nan nan nan nan nan nan nan nan nan nan nan
nan nan 36 35 33 nan nan nan nan nan nan nan nan nan nan nan nan nan nan nan nan nan nan nan nan 32 nan 32 33 32 30 31 31 33 nan nan 34 33 nan nan nan nan nan nan nan nan nan nan nan nan nan nan nan nan nan nan nan nan nan nan nan nan nan nan nan nan nan nan nan nan nan nan nan nan nan nan nan nan nan nan nan nan nan nan nan
nan nan 40 36 nan nan nan nan nan nan nan nan nan nan nan nan nan nan nan nan nan nan nan nan nan nan 33 34 35 34 33 33 31 32 nan nan nan nan nan nan nan nan nan nan nan nan nan nan nan nan nan nan nan nan nan nan nan nan nan nan nan nan nan nan nan nan nan nan nan nan nan nan nan nan nan nan nan nan 45 46 48 50 52 54 55
nan 48 45 nan nan nan nan nan nan nan nan nan nan nan nan nan nan nan nan nan nan nan nan nan nan nan nan nan nan nan nan 34 34 37 nan nan nan nan nan nan nan nan nan nan nan nan nan nan nan nan nan nan nan nan nan nan nan nan nan nan nan nan nan nan nan nan nan nan nan nan nan nan nan nan nan nan nan nan nan nan nan nan nan nan nan
nan nan nan nan nan nan nan 37 36 nan nan nan nan nan nan nan nan nan nan nan nan nan nan nan nan nan nan nan nan nan nan nan 35 39 40 nan nan nan nan nan nan nan nan nan nan nan nan nan nan nan nan nan nan nan nan nan nan nan nan nan nan nan nan nan nan nan nan nan nan nan nan nan nan nan nan nan nan nan nan nan nan nan nan nan nan
nan nan nan nan nan nan nan nan nan nan nan nan nan nan nan nan nan nan nan nan nan nan nan nan nan nan nan nan nan nan nan nan nan nan nan nan nan nan nan nan nan nan nan nan nan nan nan nan nan nan nan nan nan nan nan nan nan nan nan nan nan nan nan nan nan nan nan nan nan nan nan nan nan nan nan nan nan nan nan nan nan nan nan nan nan
nan nan nan nan nan nan nan nan nan nan nan nan nan nan nan nan nan nan nan nan nan nan nan nan nan nan nan nan nan nan nan nan nan nan nan nan nan nan nan nan nan nan nan nan nan nan nan nan nan nan nan nan nan nan nan nan nan nan nan nan nan nan nan nan nan nan nan nan nan nan nan nan nan nan nan nan nan nan nan nan nan nan nan nan nan
Wind_Direction
268 275 281 287 287 287 283 276 267 268 274 nan nan nan 285 288 286 279 266 243 227 258 268 270 279 288 292 296 297 300 299 296 299 303 nan nan 250 269 287 291 287 nan nan 292 nan nan nan 280 nan nan nan nan nan nan nan nan nan nan nan nan nan nan nan nan nan nan nan nan nan nan nan nan nan nan nan nan nan nan nan nan nan nan nan nan nan
269 271 282 288 289 288 281 266 264 267 275 282 nan nan 297 288 279 272 266 253 230 257 269 277 284 285 289 293 295 298 296 295 295 nan nan nan nan 267 289 290 294 301 299 291 nan nan nan nan nan nan nan nan nan nan nan nan nan nan nan nan nan nan nan nan nan nan nan nan nan nan nan nan nan nan nan nan nan nan nan nan nan nan nan nan nan
269 275 279 286 287 290 284 261 258 271 278 283 nan nan nan 285 280 277 270 260 256 261 273 281 281 279 284 290 292 288 287 289 291 nan nan nan nan nan 278 295 299 295 283 285 286 281 nan nan nan nan nan nan nan nan nan nan nan nan nan nan nan nan nan nan nan nan nan nan nan nan nan nan nan nan nan nan nan nan nan nan nan nan nan nan nan
267 273 280 285 285 285 280 269 265 271 279 282 285 nan nan nan nan 264 261 262 261 260 267 279 272 268 272 280 283 283 279 284 nan nan nan nan nan nan nan 282 296 293 281 277 279 282 284 284 nan nan nan 270 266 263 nan nan nan 271 270 nan nan nan nan nan nan nan nan nan nan nan nan nan nan nan nan nan nan nan nan nan nan nan nan nan nan
262 271 277 280 278 276 275 272 267 271 276 280 279 270 nan 263 258 259 257 256 262 263 259 254 259 255 263 269 273 273 271 276 nan nan nan nan nan nan nan 275 278 281 283 nan 284 nan 286 287 287 283 275 271 266 265 269 272 272 270 273 277 277 280 281 284 nan nan nan nan nan nan nan nan nan nan nan nan nan nan nan nan nan nan nan nan nan
262 264 272 272 270 270 272 268 259 260 271 274 275 272 269 266 262 259 263 269 272 269 270 256 242 246 254 263 261 262 268 nan nan nan nan nan nan 272 271 270 nan 268 274 284 280 288 289 285 287 285 276 273 272 271 274 279 279 278 284 287 283 277 277 279 275 288 295 302 nan nan nan nan nan nan nan nan nan nan nan nan nan nan nan nan nan
259 266 269 270 268 265 265 264 253 252 271 272 269 270 272 270 266 260 254 254 260 258 260 253 247 248 251 255 258 nan 261 277 280 nan nan nan nan 275 276 280 282 276 272 266 264 259 252 262 284 285 279 279 278 276 277 281 280 283 280 281 281 267 261 276 287 289 293 304 309 308 309 nan nan nan nan nan nan nan nan nan nan nan nan nan nan
262 266 271 268 270 266 262 252 241 253 272 267 267 274 269 265 258 269 267 260 264 253 247 251 240 247 nan 248 247 252 259 267 274 nan nan nan 277 281 282 285 288 290 276 266 263 261 264 251 237 242 279 284 283 278 265 273 275 278 282 283 276 265 268 285 287 289 288 297 309 316 316 318 nan nan nan nan nan nan nan nan nan nan nan nan nan
265 265 268 264 262 263 255 242 234 253 270 268 267 270 269 263 256 253 270 269 265 262 252 245 245 240 237 nan 247 250 255 268 267 269 270 277 278 280 282 282 291 283 264 265 261 253 251 256 258 238 216 224 243 257 226 237 274 280 286 279 274 272 277 281 281 275 277 277 288 300 316 331 332 nan nan nan nan nan nan nan nan nan nan nan nan
265 265 259 258 255 255 248 241 236 247 258 264 263 255 257 264 258 243 252 266 266 266 260 253 245 242 nan nan nan 249 255 254 260 263 269 279 280 287 282 267 260 255 256 254 251 243 233 233 234 225 224 214 204 219 210 201 215 274 303 279 274 283 284 280 275 276 273 270 267 276 277 281 322 333 nan nan nan nan nan nan nan nan nan nan nan
266 264 261 252 252 254 253 246 248 249 253 264 260 253 253 252 261 251 245 245 260 260 257 254 249 nan nan nan nan nan nan 252 248 258 260 272 290 293 275 265 255 242 242 238 232 236 236 230 221 214 202 214 196 212 193 149 239 236 259 270 287 285 282 275 272 268 264 262 nan nan nan nan 298 325 nan nan nan nan nan nan nan nan nan nan nan
265 261 256 250 251 253 254 250 254 258 261 263 265 263 266 259 252 257 255 253 249 254 253 251 nan nan nan nan nan 243 262 255 254 249 255 276 287 283 254 239 252 247 232 223 219 nan 229 223 207 193 196 197 220 219 182 228 220 237 268 286 293 290 277 273 270 260 nan nan nan nan nan nan nan 316 329 nan nan nan nan nan nan nan nan nan nan
259 258 256 249 250 246 248 248 258 261 262 268 271 270 266 262 253 247 261 257 252 249 248 250 253 nan nan 241 237 238 255 251 242 240 242 246 nan 272 256 233 241 236 217 216 208 210 222 223 209 198 198 193 196 223 246 236 216 270 280 292 293 277 270 266 262 nan nan nan nan nan nan 296 301 306 318 nan nan nan nan nan nan nan nan nan nan
257 256 256 259 256 249 249 251 257 261 258 255 259 261 260 258 256 244 242 258 245 254 nan nan nan nan 253 nan 237 236 247 249 nan nan nan 255 259 263 nan 249 238 227 226 222 212 nan 221 216 215 213 199 200 204 210 234 229 217 263 286 286 273 nan nan nan nan nan nan nan nan 258 276 292 303 303 308 nan nan nan nan nan nan nan nan nan nan
256 254 nan 260 260 257 253 250 251 255 252 253 258 261 261 265 265 263 258 238 239 248 255 nan nan nan nan nan nan nan nan 235 241 244 nan 262 249 nan nan nan 245 232 234 230 214 nan nan nan 223 221 209 206 209 218 232 236 235 256 258 263 nan nan nan nan nan nan nan nan 258 263 270 282 289 293 297 297 nan nan nan nan nan nan nan nan nan
250 251 252 nan 254 257 253 247 249 248 254 258 257 260 258 260 262 266 267 260 247 245 242 nan nan nan nan nan nan nan nan nan nan nan nan nan nan nan nan nan nan nan nan nan 219 nan nan nan 230 230 224 219 216 221 226 220 231 nan nan nan nan nan nan nan nan nan nan nan 262 267 270 279 283 290 nan 291 nan nan nan nan nan nan nan nan nan
244 250 252 254 251 252 253 251 250 250 252 255 256 259 261 263 270 270 271 272 265 246 241 236 nan nan nan nan nan nan nan 234 nan nan nan nan nan nan nan nan nan 241 232 223 nan nan nan nan 238 238 236 232 228 227 225 221 nan nan nan nan nan nan nan nan nan nan nan nan 268 273 273 275 278 279 nan nan nan nan nan nan nan nan nan nan nan
239 245 247 248 254 255 255 256 254 252 249 250 250 251 256 261 269 273 268 262 267 259 248 232 246 nan nan nan nan nan nan nan nan nan nan nan nan nan nan nan nan 236 nan nan nan nan nan nan nan 245 237 237 237 233 nan nan nan nan nan nan nan nan nan nan nan nan nan nan 276 277 278 279 281 284 288 nan nan nan nan nan nan nan nan nan nan
236 238 241 246 252 256 258 258 259 256 246 242 246 252 256 263 262 262 264 258 253 260 260 246 239 nan nan nan nan nan nan nan nan nan nan nan nan nan nan nan 249 nan nan nan nan nan nan nan nan nan nan nan nan nan nan nan nan nan nan nan nan nan nan nan nan nan nan nan 282 287 286 287 289 nan nan nan nan nan nan nan nan nan nan nan nan
235 233 236 241 246 251 256 259 260 256 244 239 247 249 250 251 258 258 254 254 nan nan nan 247 nan 244 nan nan nan nan nan nan nan nan nan nan nan nan nan nan nan nan nan nan nan nan nan nan nan nan nan nan nan nan nan nan nan nan nan nan nan nan nan nan nan nan nan nan nan 282 283 nan nan nan nan nan nan nan nan nan nan nan nan nan nan
231 232 232 236 241 248 253 257 258 255 244 237 241 250 255 255 252 252 253 252 nan 252 nan nan nan nan nan nan nan nan nan nan nan nan nan nan nan nan nan nan nan nan nan nan nan nan nan nan nan nan nan nan nan nan nan nan nan nan nan nan nan nan nan nan nan nan nan nan nan nan nan nan nan nan nan nan nan nan nan nan nan nan nan nan nan
237 232 232 234 239 242 249 255 253 251 244 239 241 246 246 249 254 254 252 255 246 250 nan nan nan nan nan nan nan nan nan nan nan nan nan nan nan nan nan nan nan nan nan 246 nan nan nan nan nan nan nan nan nan nan nan nan nan nan nan nan nan nan nan nan nan nan nan nan nan nan nan nan nan nan nan nan nan nan nan nan nan nan nan nan nan
244 238 236 236 238 239 245 248 245 241 242 241 240 244 244 248 250 250 250 254 250 249 246 nan 252 250 nan nan nan nan nan nan nan nan nan nan nan nan nan nan nan nan nan 246 nan nan nan nan nan nan nan nan nan nan nan nan nan nan nan nan nan nan nan nan nan nan nan nan nan nan nan nan nan nan nan nan nan nan nan nan nan nan nan nan nan
252 249 241 238 238 236 237 241 240 237 238 238 237 239 241 243 246 247 245 245 246 248 247 250 252 250 249 nan nan nan nan nan nan nan nan nan nan nan nan nan nan nan nan 239 nan nan nan nan 253 nan nan nan nan nan nan nan nan nan nan nan nan nan nan nan nan nan nan nan nan nan nan nan nan nan nan nan nan nan nan nan nan nan nan nan nan
249 254 246 243 240 238 236 237 233 232 235 237 234 237 240 241 242 243 242 244 245 247 249 249 255 256 254 249 nan nan nan nan nan nan nan nan nan nan nan nan nan nan nan nan nan nan nan nan 250 nan nan nan nan nan nan nan nan nan nan nan nan nan nan nan nan nan nan nan nan nan nan nan nan nan nan nan nan nan nan nan nan nan nan nan nan
245 255 254 248 241 242 243 239 235 233 236 238 237 237 241 241 242 242 241 241 241 246 249 248 250 251 250 nan nan nan nan nan nan nan nan nan nan nan nan nan nan nan nan nan nan nan nan nan nan nan nan nan nan nan nan nan nan nan nan nan nan nan nan nan nan nan nan nan nan nan nan nan nan nan nan nan nan nan nan nan nan nan nan nan nan
249 242 249 249 244 242 243 235 229 232 236 239 237 238 241 242 242 242 240 240 243 246 247 251 253 252 251 254 254 nan nan nan nan nan nan nan nan nan nan nan nan nan nan nan nan nan nan nan nan nan nan nan nan nan nan nan nan nan nan nan nan nan nan nan nan nan nan nan nan nan nan nan nan nan nan nan nan nan nan nan nan nan nan nan nan
246 232 229 237 246 243 244 243 239 236 236 237 237 239 242 244 242 242 242 237 244 246 247 250 250 255 257 251 253 252 nan nan nan nan nan nan nan nan nan nan nan nan nan nan nan nan nan nan nan nan nan nan nan nan nan nan nan nan nan nan nan nan nan nan nan nan nan nan nan nan nan nan nan nan nan nan nan nan nan nan nan nan nan nan nan
247 241 235 239 245 246 246 238 237 238 235 231 233 237 243 244 245 245 245 243 246 248 247 251 249 253 255 nan 258 255 254 250 nan nan 244 nan nan nan nan nan nan nan nan nan nan nan nan nan nan nan nan nan nan nan nan nan nan nan nan nan nan nan nan nan nan nan nan nan nan nan nan nan nan nan nan nan nan nan nan nan nan nan nan nan nan
243 243 243 245 247 248 246 240 227 223 226 226 228 236 240 242 245 245 245 247 246 243 246 250 252 251 252 254 254 256 253 254 250 245 246 nan nan nan nan nan nan nan nan nan nan nan nan nan nan nan nan nan nan nan nan nan nan nan nan nan nan nan nan nan nan nan nan nan nan nan nan nan nan nan nan nan nan nan nan nan nan nan nan nan nan
248 251 250 246 246 244 242 240 230 218 220 227 230 234 237 240 241 242 240 243 245 246 245 249 248 252 254 257 254 256 256 255 250 246 244 245 nan nan nan nan nan nan nan nan nan nan nan nan nan nan nan nan nan nan nan nan nan nan nan nan nan nan nan nan nan nan nan nan nan nan nan nan nan nan nan nan nan nan nan nan nan nan nan nan nan
250 252 249 250 249 247 241 239 231 217 223 235 238 236 236 238 241 240 242 243 242 246 246 247 251 255 258 258 258 258 256 255 254 252 249 245 246 249 248 nan nan nan nan nan nan nan nan nan nan nan nan nan nan nan nan nan nan nan nan nan nan nan nan nan nan nan nan nan nan nan nan nan nan nan nan nan nan nan nan nan nan nan nan nan nan
252 257 253 248 248 245 243 236 236 232 235 244 241 238 236 239 238 240 244 246 247 246 248 250 251 257 260 260 258 255 254 256 256 256 254 251 249 250 nan nan nan nan nan nan nan nan nan nan nan nan nan nan nan nan nan nan nan nan nan nan nan nan nan nan nan nan nan nan nan nan nan nan nan nan nan nan nan nan nan nan nan nan nan nan nan
259 257 250 243 241 239 239 237 239 242 245 246 241 237 238 240 239 237 242 245 245 247 249 253 255 257 259 261 258 255 254 256 255 255 256 254 255 256 254 nan nan nan 262 nan nan nan nan nan nan nan nan nan nan nan nan nan nan nan nan nan nan nan nan nan nan nan nan nan nan nan nan nan nan nan nan nan nan nan nan nan nan nan nan nan nan
262 257 250 241 238 238 231 238 243 246 247 244 236 236 239 241 241 238 242 247 249 251 253 256 258 257 259 260 260 256 253 252 251 253 255 256 255 261 259 259 263 265 266 nan nan nan nan nan nan nan nan nan nan nan nan nan nan nan nan nan nan nan nan nan nan nan nan nan nan nan nan nan nan nan nan nan nan nan nan nan nan nan nan nan nan
261 252 242 244 240 242 226 227 246 247 247 241 235 235 241 241 240 242 243 246 249 253 258 259 260 261 263 261 259 258 255 254 250 251 252 255 259 261 262 nan nan 253 262 nan nan nan nan nan nan nan nan nan nan nan nan nan nan nan nan nan nan nan nan nan nan nan nan nan nan nan nan nan nan nan nan nan nan nan nan nan nan nan nan nan nan
255 250 238 237 244 239 227 234 249 251 248 244 238 235 239 241 241 240 241 244 248 255 259 261 262 264 264 266 261 259 257 255 250 250 251 254 254 253 252 249 257 256 nan nan nan nan nan nan nan nan nan nan nan nan nan nan nan nan nan nan nan nan nan nan nan nan nan nan nan nan nan nan nan nan nan nan nan nan nan nan nan nan nan nan nan
254 247 246 242 241 232 227 241 253 253 250 246 241 240 241 241 238 238 240 243 247 252 256 258 262 263 266 264 260 261 260 260 256 252 252 254 252 256 269 nan 259 nan nan nan nan nan nan 275 nan nan nan nan nan nan nan nan nan nan nan nan nan nan nan nan nan nan nan nan nan nan nan nan nan nan nan nan nan nan nan nan nan nan nan nan nan
251 247 247 249 235 nan 231 251 258 252 248 245 242 240 241 240 240 239 239 241 244 250 253 258 260 262 261 260 259 260 262 260 258 258 256 252 256 262 266 268 267 265 264 264 264 268 270 268 nan nan nan nan nan nan nan nan nan nan nan nan nan nan nan nan nan nan nan nan nan nan nan nan nan nan nan nan nan nan nan nan nan nan nan nan nan
249 250 250 248 nan 229 242 260 257 250 248 245 242 240 239 242 241 238 239 242 245 248 251 253 255 257 256 256 257 257 259 259 260 258 261 259 255 258 262 265 267 269 266 261 263 267 nan nan nan nan nan nan nan nan nan nan nan nan nan nan nan nan nan nan nan nan nan nan nan nan nan nan nan nan nan nan nan nan nan nan nan nan nan nan nan
245 245 244 nan nan 233 248 266 259 245 244 244 242 nan nan nan nan nan nan nan 246 249 nan nan nan nan 244 243 243 244 246 253 257 260 259 259 259 264 258 259 266 267 259 257 261 nan nan nan nan nan nan nan nan nan nan nan nan nan nan nan nan nan nan nan nan nan nan nan nan nan nan nan nan nan nan nan nan nan nan nan nan nan nan nan nan
242 239 nan 241 237 244 265 272 256 241 nan 240 236 nan nan nan nan nan nan nan nan nan nan nan nan nan nan 243 244 247 247 249 251 254 267 277 265 257 269 271 265 266 nan 254 nan nan nan nan nan nan nan nan nan nan nan nan nan nan nan nan nan nan nan nan nan nan nan nan nan nan nan nan nan nan nan nan nan nan nan nan nan nan nan nan nan
243 nan nan 236 237 253 273 272 nan nan 239 236 nan nan nan nan nan nan nan nan nan nan nan nan nan 245 243 244 245 246 247 247 250 258 265 263 267 269 268 264 nan nan nan nan nan nan nan nan nan nan nan nan nan nan nan nan nan nan nan nan nan nan nan nan nan nan nan nan nan nan nan nan nan nan nan nan nan nan nan nan nan nan nan nan nan
nan nan 239 nan 242 262 nan nan nan nan nan nan nan nan nan nan nan nan nan nan nan nan nan 244 nan 246 246 246 245 246 247 250 253 257 261 262 260 258 260 nan nan nan nan nan nan nan nan nan nan nan nan nan nan nan nan nan nan nan nan nan nan nan nan nan nan nan nan nan nan nan nan nan nan nan nan nan nan nan nan nan nan nan nan nan nan
nan nan 238 234 246 nan nan nan nan nan nan nan nan nan nan nan nan nan nan nan nan nan nan 243 245 247 248 250 249 247 246 246 252 256 261 261 260 262 nan nan nan nan nan nan nan nan nan nan nan nan nan nan nan nan nan nan nan nan nan nan nan nan nan nan nan nan nan nan nan nan nan nan nan nan nan nan nan nan nan nan nan nan nan nan nan
nan nan 231 239 250 nan nan nan nan nan nan nan nan nan nan nan nan nan nan nan nan nan nan nan nan 247 nan 251 251 249 247 249 251 256 nan nan 262 261 nan nan nan nan nan nan nan nan nan nan nan nan nan nan nan nan nan nan nan nan nan nan nan nan nan nan nan nan nan nan nan nan nan nan nan nan nan nan nan nan nan nan nan nan nan nan nan
nan nan 227 240 nan nan nan nan nan nan nan nan nan nan nan nan nan nan nan nan nan nan nan nan nan nan 251 251 253 252 251 250 249 256 nan nan nan nan nan nan nan nan nan nan nan nan nan nan nan nan nan nan nan nan nan nan nan nan nan nan nan nan nan nan nan nan nan nan nan nan nan nan nan nan nan nan nan nan 287 289 295 295 296 296 297
nan 222 222 nan nan nan nan nan nan nan nan nan nan nan nan nan nan nan nan nan nan nan nan nan nan nan nan nan nan nan nan 252 248 258 nan nan nan nan nan nan nan nan nan nan nan nan nan nan nan nan nan nan nan nan nan nan nan nan nan nan nan nan nan nan nan nan nan nan nan nan nan nan nan nan nan nan nan nan nan nan nan nan nan nan nan
nan nan nan nan nan nan nan 240 247 nan nan nan nan nan nan nan nan nan nan nan nan nan nan nan nan nan nan nan nan nan nan nan 249 256 263 nan nan nan nan nan nan nan nan nan nan nan nan nan nan nan nan nan nan nan nan nan nan nan nan nan nan nan nan nan nan nan nan nan nan nan nan nan nan nan nan nan nan nan nan nan nan nan nan nan nan
nan nan nan nan nan nan nan nan nan nan nan nan nan nan nan nan nan nan nan nan nan nan nan nan nan nan nan nan nan nan nan nan nan nan nan nan nan nan nan nan nan nan nan nan nan nan nan nan nan nan nan nan nan nan nan nan nan nan nan nan nan nan nan nan nan nan nan nan nan nan nan nan nan nan nan nan nan nan nan nan nan nan nan nan nan
nan nan nan nan nan nan nan nan nan nan nan nan nan nan nan nan nan nan nan nan nan nan nan nan nan nan nan nan nan nan nan nan nan nan nan nan nan nan nan nan nan nan nan nan nan nan nan nan nan nan nan nan nan nan nan nan nan nan nan nan nan nan nan nan nan nan nan nan nan nan nan nan nan nan nan nan nan nan nan nan nan nan nan nan nan